Location: Unspecified
(0.0000°N, 0.0000°E)
Time: 09:39:06
(UTC+00:00)

Vanguard 3 - Pass Details

Date: 24 September 2023
Orbit: 507 x 3241 km, 33.3° (Epoch: 06 December)

Event Time Altitude Azimuth Distance (km) Brightness Sun altitude
Rises 16:07:14 0° 237° (WSW) 7,195 12.9 26.2°
Reaches altitude 10° 16:12:18 10° 239° (WSW) 6,081 12.7 24.9°
Maximum altitude 16:30:49 75° 322° (NW) 2,475 10.1 20.3°
Drops below altitude 10° 16:42:04 10° 47° (NE) 3,916 10.3 17.5°
Sets 16:44:37 0° 49° (NE) 4,606 10.6 16.9°
